"Pseudo-MPEC" for X86246

Created 2025 Oct 5 6:35:24 UT using Find_Orb

Click here for an explanation of pseudo-MPECs

 
 Astrometry: 
     X86246 * C2025 09 30.73659501 36 46.57 -00 39 37.2 NearDup  18.5 RVNEOCPD29
     X86246   C2025 09 30.75073601 36 45.88 -00 39 48.3    ~A2Do 18.3 RVNEOCPD29
     X86246   C2025 09 30.76487701 36 44.95 -00 39 58.7    ~A2Do 16.9 RVNEOCPD29

Station data:
(D29) Purple Mountain Observatory, XuYi Station  (N32.734363 E118.463900)
   China.  Observers H. B. Zhao, B. Li, G. Zhaori, R. Q. Hong, L. F. Hu.
   Measurers H. B. Zhao, B. Li. H. Lu, G. Zhaori. 1.04-m f/1.8 Schmidt + CCD.

Orbital elements:  X86246
   Perihelion 2026 Jun 30.132041 +/- 332 TT =  3:10:08.3 (JD 2461221.632041)
Epoch 2025 Oct  1.0 TT = JDT 2460949.5   Earth MOID: 0.0056      AutoNEOCP
M 278.172916221 +/- 70              (J2000 ecliptic)
n   0.300688899 +/- 0.214           Peri.  340.636934 +/- 70
a   2.206604261 +/- 1.05            Node   177.450509 +/- 48
e   0.56076161 +/- 0.247            Incl.   18.645643 +/- 41
P   3.27783                H 14.53  G  0.15   U 11.8  SR
q 0.969225299 +/- 1.03    Q 3.443983223 +/- 33.5
From 3 observations 2025 Sept. 30 (40.7 min); mean residual 0".61
Residuals in arcseconds: 
250930 D29  .60-  .11+    250930 D29  1.2+  .23-    250930 D29  .60-  .12+    

Ephemerides (geocentric):
Date (UTC) HH   RA             Dec           delta  r     elong  mag " sig PA
---- --------  ------------   ------------  ------ ------ -----  --- --------
2025 10 05 07  01 32 22.220   -01 38 00.89  1.6599 2.6422 166.3 18.2  24d 101
2025 10 05 08  01 32 19.700   -01 38 33.28  1.6596 2.6420 166.4 18.2  25d  97
2025 10 05 09  01 32 17.178   -01 39 05.67  1.6594 2.6418 166.4 18.2  25d  95
2025 10 05 10  01 32 14.654   -01 39 38.07  1.6591 2.6416 166.4 18.2  25d  93
2025 10 05 11  01 32 12.129   -01 40 10.47  1.6588 2.6414 166.5 18.2  25d  92
2025 10 05 12  01 32 09.602   -01 40 42.87  1.6585 2.6411 166.5 18.2  25d  92
2025 10 05 13  01 32 07.074   -01 41 15.28  1.6582 2.6409 166.5 18.2  25d  91
2025 10 05 14  01 32 04.544   -01 41 47.69  1.6580 2.6407 166.6 18.2  25d  91
2025 10 05 15  01 32 02.012   -01 42 20.10  1.6577 2.6405 166.6 18.2  25d  91
2025 10 05 16  01 31 59.478   -01 42 52.52  1.6574 2.6403 166.6 18.2  25d  91
2025 10 05 17  01 31 56.943   -01 43 24.94  1.6571 2.6401 166.6 18.2  25d  91
2025 10 05 18  01 31 54.406   -01 43 57.37  1.6568 2.6399 166.7 18.2  25d  90
2025 10 05 19  01 31 51.868   -01 44 29.80  1.6566 2.6397 166.7 18.2  25d  90
2025 10 05 20  01 31 49.327   -01 45 02.23  1.6563 2.6395 166.7 18.2  25d  90
2025 10 05 21  01 31 46.786   -01 45 34.67  1.6560 2.6392 166.8 18.2  25d  90
2025 10 05 22  01 31 44.242   -01 46 07.11  1.6557 2.6390 166.8 18.2  25d  90
2025 10 05 23  01 31 41.697   -01 46 39.55  1.6555 2.6388 166.8 18.1  25d  90
2025 10 06 00  01 31 39.150   -01 47 12.00  1.6552 2.6386 166.8 18.1  25d  90
2025 10 06 01  01 31 36.602   -01 47 44.45  1.6549 2.6384 166.9 18.1  25d  90
2025 10 06 02  01 31 34.052   -01 48 16.90  1.6547 2.6382 166.9 18.1  25d  90
2025 10 06 03  01 31 31.500   -01 48 49.36  1.6544 2.6380 166.9 18.1  25d  90
2025 10 06 04  01 31 28.946   -01 49 21.82  1.6541 2.6378 167.0 18.1  25d  90
2025 10 06 05  01 31 26.392   -01 49 54.28  1.6538 2.6375 167.0 18.1  25d  90
2025 10 06 06  01 31 23.835   -01 50 26.75  1.6536 2.6373 167.0 18.1  25d  90
2025 10 06 07  01 31 21.277   -01 50 59.22  1.6533 2.6371 167.0 18.1  25d  90
2025 10 06 08  01 31 18.717   -01 51 31.69  1.6530 2.6369 167.1 18.1  25d  90
2025 10 06 09  01 31 16.155   -01 52 04.17  1.6528 2.6367 167.1 18.1  25d  90
2025 10 06 10  01 31 13.592   -01 52 36.65  1.6525 2.6365 167.1 18.1  25d  90
2025 10 06 11  01 31 11.028   -01 53 09.13  1.6522 2.6363 167.2 18.1  25d  90
2025 10 06 12  01 31 08.462   -01 53 41.61  1.6520 2.6361 167.2 18.1  25d  90
2025 10 06 13  01 31 05.894   -01 54 14.10  1.6517 2.6358 167.2 18.1  25d  90
2025 10 06 14  01 31 03.324   -01 54 46.59  1.6514 2.6356 167.2 18.1  25d  90
2025 10 06 15  01 31 00.753   -01 55 19.08  1.6512 2.6354 167.3 18.1  25d  90
2025 10 06 16  01 30 58.181   -01 55 51.58  1.6509 2.6352 167.3 18.1  25d  90
2025 10 06 17  01 30 55.607   -01 56 24.08  1.6506 2.6350 167.3 18.1  25d  89
2025 10 06 18  01 30 53.031   -01 56 56.58  1.6504 2.6348 167.3 18.1  25d  89
2025 10 06 19  01 30 50.453   -01 57 29.08  1.6501 2.6346 167.4 18.1  25d  89
2025 10 06 20  01 30 47.875   -01 58 01.59  1.6498 2.6344 167.4 18.1  25d  89
2025 10 06 21  01 30 45.294   -01 58 34.09  1.6496 2.6341 167.4 18.1  25d  89
2025 10 06 22  01 30 42.712   -01 59 06.60  1.6493 2.6339 167.4 18.1  25d  89
2025 10 06 23  01 30 40.129   -01 59 39.12  1.6491 2.6337 167.5 18.1  25d  89
2025 10 07 00  01 30 37.543   -02 00 11.63  1.6488 2.6335 167.5 18.1  25d  89
2025 10 07 01  01 30 34.957   -02 00 44.15  1.6485 2.6333 167.5 18.1  25d  89
2025 10 07 02  01 30 32.369   -02 01 16.67  1.6483 2.6331 167.5 18.1  25d  89
2025 10 07 03  01 30 29.779   -02 01 49.19  1.6480 2.6329 167.6 18.1  25d  89
2025 10 07 04  01 30 27.188   -02 02 21.72  1.6478 2.6327 167.6 18.1  25d  89
2025 10 07 05  01 30 24.595   -02 02 54.24  1.6475 2.6324 167.6 18.1  25d  89
2025 10 07 06  01 30 22.000   -02 03 26.77  1.6473 2.6322 167.6 18.1  25d  89